Chatham, MA

3:58 PM EST on December 11, 2019 (GMT -0500)
Chatham Municipal

Weather History for KCQX - October, 2019

Change the Weather History Date:

Wednesday, October 9, 2019

  Actual Average Record
Temperature  
Mean Temperature 57 °F -  
Max Temperature 60 °F 60 °F 82 °F (2011)
Min Temperature 54 °F 46 °F 36 °F (2001)
Degree Days  
Heating Degree Days 8    
Growing Degree Days 7 (Base 50)    
Moisture  
Dew Point 52 °F    
Average Humidity 87    
Maximum Humidity 97    
Minimum Humidity 62    
Precipitation  
Precipitation 0.51 in - - ()
Sea Level Pressure  
Sea Level Pressure 30.23 in    
Wind  
Wind Speed 16 mph (NE)    
Max Wind Speed 21 mph    
Max Gust Speed 38 mph    
Visibility 6 miles    
Events Rain    
Averages and records for this station are not official NWS values.
T = Trace of Precipitation, MM = Missing Value Source: NWS Daily Summary

Daily Weather History Graph

Daily Weather History Graph

Search for Another Location

Airport or City:

Astronomy

Oct. 09, 2019 Rise Set
Actual Time 6:45 AM EDT 6:08 PM EDT
Civil Twilight 6:17 AM EDT 6:36 PM EDT
Nautical Twilight 5:45 AM EDT 7:08 PM EDT
Astronomical Twilight 5:12 AM EDT 7:40 PM EDT
Moon 4:43 PM EDT (10/9) 2:23 AM EDT (10/9)
Length of Visible Light 12h 19m
Length of Day
11h 23m
Waxing Gibbous, 85% of the Moon is Illuminated
Oct 9
Waxing Gibbous
Oct 13
Full
Oct 21
Last Quarter
Oct 27
New
Nov 4
First Quarter

Hourly Weather History & Observations

Time (EDT) Temp. Dew Point Humidity Pressure Visibility Wind Dir Wind Speed Gust Speed Precip Events Conditions
1:52 AM 60.1 °F 51.1 °F 72% 30.24 in 10.0 mi NE 12.7 mph 25.3 mph 0.00 in Rain Light Rain
2:52 AM 57.9 °F 52.0 °F 81% 30.22 in 10.0 mi NE 13.8 mph 25.3 mph 0.02 in Rain Light Rain
3:52 AM 57.9 °F 52.0 °F 81% 30.21 in 8.0 mi ENE 15.0 mph 24.2 mph 0.01 in Rain Light Rain
4:52 AM 57.9 °F 52.0 °F 81% 30.22 in 10.0 mi NE 16.1 mph 23.0 mph 0.04 in Rain Light Rain
5:52 AM 59.0 °F 51.1 °F 75% 30.22 in 10.0 mi ENE 18.4 mph 33.4 mph 0.00 in   Overcast
6:52 AM 59.0 °F 51.1 °F 75% 30.23 in 10.0 mi NE 20.7 mph 32.2 mph 0.00 in Rain Light Rain
7:52 AM 59.0 °F 51.1 °F 75% 30.24 in 10.0 mi ENE 18.4 mph 29.9 mph 0.00 in Rain Light Rain
8:52 AM 57.9 °F 52.0 °F 81% 30.25 in 10.0 mi ENE 16.1 mph 25.3 mph 0.00 in Rain Light Rain
9:01 AM 57.9 °F 52.0 °F 81% 30.25 in 9.0 mi ENE 20.7 mph 29.9 mph 0.01 in Rain Light Rain
9:18 AM 55.9 °F 50.0 °F 80% 30.27 in 2.0 mi ENE 19.6 mph 32.2 mph 0.04 in Rain Rain
9:31 AM 55.9 °F 53.1 °F 90% 30.27 in 1.8 mi ENE 18.4 mph 28.8 mph 0.06 in Rain Rain
9:52 AM 55.9 °F 54.0 °F 93% 30.27 in 1.8 mi ENE 17.3 mph 26.5 mph 0.10 in Rain Light Rain
10:52 AM 54.0 °F 52.0 °F 93% 30.27 in 1.5 mi NE 18.4 mph 29.9 mph 0.10 in Rain Rain
11:24 AM 54.0 °F 53.1 °F 97% 30.27 in 3.0 mi NE 19.6 mph 28.8 mph 0.05 in Rain Light Rain
11:32 AM 54.0 °F 52.0 °F 93% 30.27 in 1.8 mi NE 16.1 mph 28.8 mph 0.06 in Rain Light Rain
11:50 AM 55.4 °F 53.6 °F 94% 30.26 in 1.2 mi NE 11.5 mph 21.9 mph 0.09 in Rain Rain
11:52 AM 55.0 °F 54.0 °F 96% 30.27 in 1.0 mi NE 11.5 mph 21.9 mph 0.09 in Rain Light Rain
12:25 PM 55.9 °F 54.0 °F 93% 30.25 in 1.5 mi NE 12.7 mph 26.5 mph 0.04 in Rain Light Rain
12:52 PM 55.9 °F 55.0 °F 97% 30.25 in 1.8 mi NE 13.8 mph 21.9 mph 0.06 in Rain Light Rain
1:10 PM 55.9 °F 55.0 °F 97% 30.24 in 2.5 mi NE 16.1 mph 25.3 mph 0.01 in Rain Light Rain
1:22 PM 55.9 °F 55.0 °F 97% 30.24 in 1.8 mi NE 16.1 mph 25.3 mph 0.03 in Rain Light Rain
1:26 PM 55.0 °F 54.0 °F 96% 30.24 in 2.0 mi NE 18.4 mph 25.3 mph 0.03 in Rain Light Rain
1:33 PM 55.0 °F 54.0 °F 96% 30.24 in 1.5 mi NE 12.7 mph 25.3 mph 0.05 in Rain Rain
1:43 PM 55.0 °F 54.0 °F 96% 30.23 in 3.0 mi NE 12.7 mph 27.6 mph 0.05 in Rain Light Rain
1:50 PM 55.4 °F 53.6 °F 94% 30.23 in 7.0 mi NE 11.5 mph 27.6 mph 0.05 in Rain Light Rain
1:52 PM 55.0 °F 54.0 °F 96% 30.24 in 6.0 mi NE 15.0 mph 23.0 mph 0.05 in Rain Light Rain
2:06 PM 55.0 °F 54.0 °F 96% 30.23 in 2.0 mi NE 13.8 mph 21.9 mph 0.01 in Rain Light Rain
2:13 PM 55.0 °F 54.0 °F 96% 30.23 in 1.5 mi NE 18.4 mph 32.2 mph 0.01 in Rain Light Rain
2:47 PM 55.4 °F 53.6 °F 94% 30.23 in 3.0 mi NE 16.1 mph 24.2 mph 0.03 in Rain Light Rain
2:52 PM 55.0 °F 53.1 °F 93% 30.23 in 4.0 mi NE 15.0 mph 26.5 mph 0.03 in Rain Light Rain
3:04 PM 55.0 °F 54.0 °F 96% 30.22 in 4.0 mi NE 16.1 mph 26.5 mph 0.00 in Rain Light Rain
3:52 PM 55.0 °F 53.1 °F 93% 30.22 in 7.0 mi NNE 13.8 mph 28.8 mph 0.00 in   Overcast
4:05 PM 55.9 °F 54.0 °F 93% 30.21 in 2.5 mi NE 16.1 mph 28.8 mph 0.00 in Rain Light Rain
4:27 PM 55.9 °F 54.0 °F 93% 30.21 in 5.0 mi NE 17.3 mph 31.1 mph 0.01 in   Overcast
4:36 PM 55.9 °F 54.0 °F 93% 30.21 in 8.0 mi NE 18.4 mph 27.6 mph 0.01 in Rain Light Rain
4:52 PM 57.0 °F 54.0 °F 89% 30.21 in 10.0 mi NE 15.0 mph 35.7 mph 0.01 in   Overcast
5:52 PM 57.0 °F 54.0 °F 89% 30.21 in 8.0 mi NE 15.0 mph 28.8 mph 0.00 in   Overcast
6:52 PM 57.0 °F 52.0 °F 83% 30.22 in 10.0 mi ENE 17.3 mph 34.5 mph 0.00 in   Overcast
7:52 PM 57.0 °F 50.0 °F 77% 30.22 in 10.0 mi NE 19.6 mph 32.2 mph N/A   Overcast
8:41 PM 57.9 °F 48.0 °F 70% 30.21 in 10.0 mi NE 19.6 mph 31.1 mph N/A   Overcast
8:52 PM 57.9 °F 48.0 °F 70% 30.21 in 10.0 mi NE 18.4 mph 38.0 mph N/A   Overcast
9:01 PM 57.9 °F 48.0 °F 70% 30.20 in 10.0 mi NE 20.7 mph 34.5 mph N/A   Overcast
9:52 PM 57.0 °F 48.0 °F 72% 30.20 in 10.0 mi NE 20.7 mph 31.1 mph N/A   Overcast
10:52 PM 57.9 °F 45.0 °F 62% 30.19 in 10.0 mi NE 18.4 mph 28.8 mph N/A   Overcast
11:52 PM 57.9 °F 46.0 °F 65% 30.17 in 10.0 mi NE 19.6 mph 38.0 mph N/A   Overcast